CHINASAT 9C

Last updated on Thu Oct 30 2025 00:02:53 GMT+0000 (Coordinated Universal Time)

1 64470U 25132A 25302.48936447 -.00000238 00000+0 00000+0 0 9993 2 64470 0.0072 205.9628 0005568 39.7328 60.7842 1.00272401 1836
UTC large
Height (km)
Speed (km/s)
/
Latitude / Longitude
Inclination (degrees)
Orbital Period (minutes)
Azimuth
Elevation
Range (km)
Doppler Factor

Next 0 passes for location: London (51.5072 / 0.1276)

Sorry there are no passes over London.